Location: *
(43.1954°S, 179.8814°W)
Time: 06:12:19
(UTC+00:00)

Daily predictions for brighter satellites

Satellite Brightness Start Highest point End
(mag) Time Altitude Azimuth Time Altitude Azimuth Time Altitude Azimuth
USA 59 Rocket 3.8 13:51:12 22° SSE 13:51:12 22° SSE 13:54:14 10° SE
USA 59 Rocket 3.2 15:37:46 30° S 15:37:46 30° S 15:45:01 10° SE
ATLAS 5 CENTAUR R/B 4.2 15:47:17 21° E 15:47:17 21° E 15:49:10 10° ENE
Cosmos 2219 Rocket 3.6 16:03:20 33° SE 16:03:20 33° SE 16:06:30 10° SSE
Cosmos 2360 Rocket 4.2 16:18:21 18° SSE 16:18:21 18° SSE 16:19:48 10° SSE
SL-19 R/B 4.5 16:24:02 10° NNE 16:30:18 87° ESE 16:30:49 77° S
Cosmos 1605 Rocket 3.9 16:32:30 86° SW 16:32:38 87° W 16:39:04 10° N
Timation 2 Rocket 4.5 16:35:51 51° NNW 16:35:51 51° NNW 16:41:09 10° N
COSMOS 2428 3.4 16:31:33 14° N 16:36:17 53° ENE 16:41:55 10° SSE
Cosmos 773 Rocket 4.2 16:41:52 44° N 16:43:27 69° ENE 16:48:46 10° SSE
ATLAS 3B R/B 4.3 16:40:55 15° S 16:43:58 21° SSE 16:48:37 10° E
Cosmos 1626 Rocket 4.4 16:47:12 43° NNE 16:47:12 43° NNE 16:50:16 10° NNE
Lacrosse 5 3.0 16:45:41 34° SSE 16:46:21 36° SSE 16:51:03 10° E
SL-16 R/B 4.2 16:45:01 10° S 16:46:52 19° S 16:46:52 19° S
Cosmos 2150 Rocket 3.9 16:51:20 81° NNW 16:51:20 81° NNW 16:56:19 10° NNE
Meteor 2-1 Rocket 4.1 16:46:23 10° NNW 16:52:12 77° W 16:57:58 10° S
Gbstr 26 Del rocket 3.2 16:55:36 80° N 16:55:36 80° N 17:00:55 10° NE
Cosmos 2322 Rocket 4.1 17:00:07 15° S 17:00:07 15° S 17:01:28 10° S
USA 276 4.3 17:04:39 23° SE 17:04:39 23° SE 17:06:19 10° E
DMSP B5D2-2 3.9 17:01:49 10° S 17:07:05 73° WSW 17:12:18 10° NNW
Cosmos 2333 Rocket 3.7 17:13:47 22° SSW 17:13:47 22° SSW 17:16:32 10° S
Cosmos 1862 3.9 17:10:01 23° S 17:12:17 54° E 17:16:08 10° NNE
Spot 4 Rocket 3.9 17:10:55 10° N 17:16:02 68° WNW 17:18:32 31° SSW
Meteor 2-13 Rocket 4.3 17:11:11 10° N 17:17:21 81° W 17:23:38 10° S
Cosmos 2298 Rocket 4.2 17:20:21 45° W 17:20:40 46° WNW 17:25:42 10° N
Cosmos 2278 Rocket 2.8 17:16:21 15° SSW 17:21:05 57° ESE 17:26:41 10° NE
ATLAS 5 CENTAUR R/B 2.2 17:28:08 40° W 17:28:49 42° WNW 17:33:02 10° N
Okean 1-7 Rocket 3.5 17:26:43 28° SSW 17:29:02 65° W 17:33:32 10° N
Magion 5 Rocket2 4.2 17:26:42 28° WNW 17:29:35 47° SW 17:34:23 10° SSE
USA 59 Rocket 3.4 17:24:19 15° SW 17:30:02 23° S 17:37:23 10° SE
ATLAS 2AS CENTAUR R/B 2.7 17:23:45 10° NNW 17:30:27 83° NE 17:37:31 10° SE
Lacrosse 5 rocket 1.5 17:30:55 43° SSW 17:30:55 43° SSW 17:33:57 10° SE
Meteor 1-27 4.2 17:28:19 10° N 17:34:07 84° WSW 17:39:54 10° S
CORIOLIS 4.0 17:29:06 10° NNE 17:34:28 81° WNW 17:39:55 10° SSW
Iridium 4 Rocket 3.5 17:29:49 10° NNW 17:34:37 57° W 17:39:57 10° S
Meteor 1-31 Rocket 3.6 17:32:09 10° NNE 17:35:48 49° ESE 17:39:30 10° S
Cosmos 2123 Rocket 4.2 17:30:31 10° N 17:36:44 76° E 17:43:06 10° S
Cosmos 2228 4.0 17:38:30 29° SW 17:38:30 29° SW 17:41:07 10° S
Cosmos 1602 Rocket 3.8 17:41:27 26° SW 17:43:32 46° W 17:47:42 10° NNW
NOSS 3-1 (C) 3.3 17:39:11 17° SW 17:44:07 81° SE 17:49:18 10° NE
Cosmos 2173 Rocket 4.0 17:37:53 10° SSW 17:44:15 70° W 17:50:35 10° N
Cosmos 1812 4.4 17:41:42 10° NNE 17:44:59 33° E 17:48:17 10° SSE
Cosmos 2219 Rocket 3.2 17:45:07 24° SW 17:45:13 24° SW 17:49:50 10° S
Cosmos 2100 Rocket 4.0 17:38:51 10° SSW 17:45:14 65° W 17:51:33 10° N
Cosmos 1606 Rocket 3.5 17:42:26 10° N 17:46:53 84° W 17:51:21 10° S
NOSS 0 Rocket 3.9 17:42:31 10° NNW 17:48:46 75° WSW 17:55:05 10° SSE
Cosmos 1825 Rocket 3.5 17:45:19 10° S 17:49:46 88° WNW 17:54:10 10° N
Cosmos 1727 Rocket 4.4 17:44:02 10° NW 17:50:02 42° WSW 17:56:06 10° S
NOSS 3-1 (A) 4.1 17:44:07 11° SSW 17:50:11 47° SE 17:55:22 10° ENE
Cosmos 1758 Rocket 4.3 17:50:49 26° SW 17:52:17 32° W 17:56:16 10° NNW
Meteor 2-15 4.5 17:46:47 10° SSW 17:52:56 62° W 17:59:00 10° N
SMAP 3.3 17:48:45 10° N 17:53:18 50° W 17:57:54 10° SSW
Cosmos 2322 4.3 17:51:08 19° WNW 17:54:25 33° SW 17:59:33 10° S
SL-16 R/B 4.4 17:54:07 10° NNE 17:58:58 29° ENE 18:03:50 10° SE
Cosmos 2360 Rocket 4.1 18:00:08 11° SSW 18:00:08 11° SSW 18:01:24 10° SSW
Cosmos 1271 Rocket 3.3 17:58:53 21° SW 18:00:54 36° W 18:04:23 10° NNW
Cosmos 2058 Rocket 3.9 17:57:12 10° N 18:01:31 53° E 18:05:50 10° SSE
Cosmos 2369 Rocket 4.5 17:57:45 10° S 18:01:43 19° SE 18:05:40 10° E
Helios 1B rocket 2.2 17:57:55 10° NNE 18:01:51 84° W 18:05:51 10° SSW
Cosmos 1725 Rocket 3.9 17:57:14 10° S 18:03:32 80° W 18:09:43 10° N
ISS -2.3 18:02:01 18° SSW 18:03:46 28° SSE 18:06:46 10° E
Cosmos 1726 Rocket 3.5 18:05:12 10° NNW 18:09:37 64° W 18:14:03 10° S
Cosmos 44 4.3 18:05:42 10° SSW 18:10:25 46° SE 18:15:21 10° NE
JB-3 4.3 18:07:48 10° S 18:11:31 52° WSW 18:15:12 10° NNW
Cosmos 1459 Rocket 4.3 18:06:03 10° SSW 18:11:49 44° W 18:17:29 10° NNW
USA 290 4.1 18:09:10 10° S 18:12:10 30° ESE 18:15:07 10° NE
ADEOS Rocket 3.4 18:06:31 10° NNE 18:13:06 73° ESE 18:19:05 10° S
Cosmos 1943 Rocket 2.2 18:07:39 10° SSW 18:13:16 87° ESE 18:18:51 10° NNE
Cosmos 1666 2.9 18:10:30 10° SSW 18:13:48 39° W 18:17:06 10° NNW
Geosat 4.1 18:08:54 10° SSE 18:14:00 87° ENE 18:19:02 10° NNW
IGS 5A 3.6 18:11:48 10° NNE 18:15:54 79° ESE 18:20:04 10° S
Cosmos 2237 Rocket 2.2 18:12:36 10° NW 18:18:10 61° WSW 18:23:49 10° SSE
COSMOS 2428 3.6 18:16:02 10° WNW 18:20:51 27° SW 18:25:43 10° S
COSMO-SKYMED 1 2.5 18:16:57 10° S 18:21:23 77° WSW 18:25:45 10° NNW
Cosmos 2151 3.0 18:21:18 10° SSW 18:25:34 61° W 18:29:45 10° N
Cosmos 1802 Rocket 4.3 18:21:14 10° SSW 18:27:03 43° W 18:32:53 10° NNW
SL-24 R/B - RUBIN 2 3.6 18:22:32 10° NW 18:27:16 84° WSW 18:31:38 10° SSE
Cosmos 1980 3.9 18:22:44 10° NW 18:28:15 48° WSW 18:33:49 10° SSE
CZ-4B R/B 4.4 18:25:32 10° NNW 18:29:00 36° W 18:32:40 10° SSW
Cosmos 2016 Rocket 4.2 18:23:15 10° SSW 18:29:12 50° W 18:35:04 10° NNW
Lacrosse 5 2.2 18:24:54 12° SW 18:29:31 53° NW 18:34:27 10° NNE
Cosmos 1500 4.4 18:27:37 11° SW 18:29:54 19° W 18:32:26 10° NW
USA 307 4.4 18:28:35 10° SW 18:31:45 23° SSE 18:34:55 10° ESE
DNEPR-1 R/B 3.7 18:30:05 10° NW 18:34:04 47° SW 18:38:24 10° SSE
CZ-2C R/B 3.8 18:32:29 10° NNW 18:35:33 25° W 18:38:41 10° SW
ATLAS 3B R/B 2.6 18:29:17 10° SW 18:35:35 80° SE 18:41:54 10° NE
USA 276 2.2 18:35:07 11° WSW 18:38:01 63° NNW 18:41:02 10° NE
Cosmos 1782 3.6 18:40:17 10° N 18:44:04 55° E 18:47:55 10° SSE
ADEOS 4.0 18:41:17 10° NNE 18:46:30 70° ESE 18:51:46 10° S
